EN

Hourly Weather Yali

Today, 24 January, Sunday

Time Temperature Precipitation Wind Pressure Humidity
00:00 +19°C° 0.1 mm 1 mps 658 mmHg 97%
01:00 +18°C° 0.1 mm 1 mps 658 mmHg 97%
02:00 +18°C° 0.2 mm 1 mps 658 mmHg 97%
03:00 +18°C° 0.2 mm 1 mps 657 mmHg 97%
04:00 +18°C° 0.2 mm 1 mps 657 mmHg 97%
05:00 +18°C° 0.1 mm 1 mps 658 mmHg 97%
06:00 +18°C° 0.1 mm 1 mps 658 mmHg 97%
07:00 +16°C° 0.1 mm 0 mps 658 mmHg 97%
08:00 +18°C° 0.1 mm 0 mps 659 mmHg 90%
09:00 +20°C° 0.1 mm 0 mps 659 mmHg 84%
10:00 +22°C° 0.1 mm 0 mps 660 mmHg 77%
11:00 +25°C° 0.5 mm 1 mps 659 mmHg 77%
12:00 +25°C° 0.5 mm 1 mps 659 mmHg 77%
13:00 +25°C° 0.5 mm 1 mps 658 mmHg 77%
14:00 +25°C° 0.5 mm 1 mps 657 mmHg 78%
15:00 +25°C° 0.5 mm 1 mps 657 mmHg 79%
16:00 +25°C° 0.5 mm 1 mps 656 mmHg 80%
17:00 +23°C° 0.3 mm 1 mps 656 mmHg 85%
18:00 +20°C° 0.3 mm 0 mps 656 mmHg 91%
19:00 +18°C° 0.3 mm 0 mps 657 mmHg 97%
20:00 +20°C° 0.2 mm 1 mps 657 mmHg 97%
21:00 +20°C° 0.2 mm 1 mps 657 mmHg 96%
22:00 +20°C° 0.2 mm 1 mps 658 mmHg 96%
23:00 +19°C° 0.2 mm 1 mps 657 mmHg 96%

Tomorrow, 25 January, Monday

Time Temperature Precipitation Wind Pressure Humidity
00:00 +19°C° 0.2 mm 1 mps 657 mmHg 96%
01:00 +19°C° 0.2 mm 1 mps 657 mmHg 96%
02:00 +19°C° 0 mm 1 mps 657 mmHg 96%
03:00 +18°C° 0 mm 1 mps 657 mmHg 95%
04:00 +18°C° 0 mm 1 mps 656 mmHg 95%
05:00 +18°C° 0 mm 1 mps 657 mmHg 95%
06:00 +19°C° 0 mm 1 mps 657 mmHg 94%
07:00 +19°C° 0 mm 1 mps 658 mmHg 94%
08:00 +20°C° 0.5 mm 1 mps 658 mmHg 91%
09:00 +22°C° 0.5 mm 1 mps 659 mmHg 88%
10:00 +22°C° 0.5 mm 0 mps 659 mmHg 85%
11:00 +23°C° 0.6 mm 0 mps 659 mmHg 80%
12:00 +24°C° 0.6 mm 0 mps 658 mmHg 75%
13:00 +25°C° 0.6 mm 0 mps 658 mmHg 70%
14:00 +26°C° 0.1 mm 1 mps 657 mmHg 70%
15:00 +26°C° 0.1 mm 1 mps 657 mmHg 69%
16:00 +26°C° 0.1 mm 1 mps 656 mmHg 68%
17:00 +24°C° 0.2 mm 1 mps 656 mmHg 77%
18:00 +21°C° 0.2 mm 0 mps 656 mmHg 86%
19:00 +19°C° 0.2 mm 0 mps 656 mmHg 95%
20:00 +18°C° 0.4 mm 0 mps 657 mmHg 95%
21:00 +20°C° 0.4 mm 1 mps 657 mmHg 96%
22:00 +20°C° 0.4 mm 1 mps 657 mmHg 97%
23:00 +20°C° 0.2 mm 1 mps 657 mmHg 96%

Day after tomorrow, 26 January, Tuesday

Time Temperature Precipitation Wind Pressure Humidity
00:00 +20°C° 0.2 mm 1 mps 657 mmHg 95%
01:00 +19°C° 0.2 mm 1 mps 657 mmHg 95%
02:00 +19°C° 0 mm 1 mps 657 mmHg 95%
03:00 +19°C° 0 mm 1 mps 657 mmHg 95%
04:00 +19°C° 0 mm 1 mps 657 mmHg 95%
05:00 +19°C° 0 mm 1 mps 657 mmHg 95%
06:00 +19°C° 0 mm 1 mps 658 mmHg 94%
07:00 +19°C° 0 mm 1 mps 658 mmHg 94%
08:00 +21°C° 0.1 mm 1 mps 659 mmHg 87%
09:00 +21°C° 0.1 mm 0 mps 659 mmHg 79%
10:00 +23°C° 0.1 mm 0 mps 660 mmHg 72%
11:00 +25°C° 0.3 mm 1 mps 660 mmHg 71%
12:00 +26°C° 0.3 mm 1 mps 659 mmHg 70%
13:00 +26°C° 0.3 mm 1 mps 658 mmHg 70%
14:00 +26°C° 0.4 mm 1 mps 658 mmHg 72%
15:00 +26°C° 0.4 mm 1 mps 657 mmHg 74%
16:00 +25°C° 0.4 mm 1 mps 657 mmHg 77%
17:00 +24°C° 0.1 mm 1 mps 657 mmHg 83%
18:00 +22°C° 0.1 mm 1 mps 657 mmHg 89%
19:00 +19°C° 0.1 mm 0 mps 657 mmHg 95%
20:00 +20°C° 0.1 mm 1 mps 657 mmHg 95%
21:00 +20°C° 0.1 mm 1 mps 658 mmHg 95%
22:00 +20°C° 0.1 mm 1 mps 658 mmHg 95%
23:00 +20°C° 0 mm 1 mps 658 mmHg 95%

27 January, Wednesday

Time Temperature Precipitation Wind Pressure Humidity
00:00 +20°C° 0 mm 1 mps 658 mmHg 94%
01:00 +19°C° 0 mm 1 mps 658 mmHg 94%
02:00 +19°C° 0 mm 1 mps 658 mmHg 93%
03:00 +19°C° 0 mm 1 mps 657 mmHg 93%
04:00 +19°C° 0 mm 1 mps 657 mmHg 93%
05:00 +19°C° 0 mm 1 mps 658 mmHg 93%
06:00 +19°C° 0 mm 1 mps 658 mmHg 93%
07:00 +19°C° 0 mm 1 mps 659 mmHg 93%
08:00 +21°C° 0.1 mm 1 mps 660 mmHg 85%
09:00 +23°C° 0.1 mm 1 mps 660 mmHg 77%
10:00 +25°C° 0.1 mm 1 mps 661 mmHg 69%
11:00 +25°C° 0.6 mm 1 mps 660 mmHg 73%
12:00 +25°C° 0.6 mm 1 mps 659 mmHg 77%
13:00 +25°C° 0.6 mm 1 mps 659 mmHg 81%
14:00 +25°C° 0.3 mm 1 mps 658 mmHg 80%
15:00 +25°C° 0.3 mm 1 mps 658 mmHg 79%
16:00 +25°C° 0.3 mm 1 mps 657 mmHg 78%
17:00 +23°C° 0 mm 1 mps 657 mmHg 84%
18:00 +22°C° 0 mm 1 mps 657 mmHg 90%
19:00 +18°C° 0 mm 0 mps 657 mmHg 96%
20:00 +20°C° 0.1 mm 1 mps 658 mmHg 96%
21:00 +20°C° 0.1 mm 1 mps 658 mmHg 96%
22:00 +20°C° 0.1 mm 1 mps 658 mmHg 96%
23:00 +19°C° 0 mm 1 mps 658 mmHg 95%

28 January, Thursday

Time Temperature Precipitation Wind Pressure Humidity
00:00 +19°C° 0 mm 1 mps 658 mmHg 94%
01:00 +19°C° 0 mm 1 mps 658 mmHg 93%
02:00 +19°C° 0 mm 1 mps 658 mmHg 93%
03:00 +19°C° 0 mm 1 mps 658 mmHg 92%
04:00 +19°C° 0 mm 1 mps 658 mmHg 92%
05:00 +19°C° 0 mm 1 mps 658 mmHg 92%
06:00 +19°C° 0 mm 1 mps 658 mmHg 91%
07:00 +19°C° 0 mm 1 mps 659 mmHg 91%
08:00 +21°C° 0.1 mm 1 mps 659 mmHg 83%
09:00 +24°C° 0.1 mm 1 mps 660 mmHg 75%
10:00 +26°C° 0.1 mm 1 mps 661 mmHg 66%
11:00 +26°C° 0.8 mm 1 mps 660 mmHg 71%
12:00 +25°C° 0.8 mm 1 mps 659 mmHg 76%
13:00 +25°C° 0.8 mm 1 mps 659 mmHg 80%

29 January, Friday

Time Temperature Precipitation Wind Pressure Humidity
Show more

We Need Your Consent

Meteoprog and our Service Providers may store and access personal data such as cookies, device identifiers or other similar technologies on your device and process such data to personalise content and ads, as well as provide social media features and to analyse the traffic.

  • Store and/or access information on your device

    Cookies, device identifiers or other information can be stored or accessed on your device for the purposes indicated above.

  • Personalised ads and content, ad and content measurement, audience insights, and products development

    Ads and content can be personalised based on a profile. More data can be added to better personalise ads and content. Ad and content performance can be measured. Insights about the audience who saw the ads and content can be derived. Such data can be used to develop or improve user’s experience, systems and software.

By clicking ‘I Agree’ you will allow the use of indicated cookies, device identifiers, web beacons or other similar technologies. Your settings can be changed in the browser on your device.

For certain purposes, legitimate interests may be relied on, rather than consent. You can read more about this in our Privacy and Cookie Policy.